Погода в Имеровигли

Греция     36°25′54″N   25°25′29″E
темп.,
°C
ветер,
м/с
пор.,
м/с
влажн.,
%
обл.,
%
осадки,
мм/ч
давл.,
гПа
погр.,
м
25 февраля, чт
чт2523:00+15с1214710 0.0 1026767
02:00+14ссз1113720 0.0 1026886
05:00+14с11146932 0.0 1025964
08:00+14с14177117 0.0 10251050
11:00+13с1417730 0.0 1026935
14:00+14с1315710 0.0 1025855
17:00+14ссв1214690 0.0 1025878
20:00+15ссв1113700 0.0 1025794
26 февраля, пт
пт2623:00+15с910710 0.0 1026710
02:00+14ссв910720 0.0 1025671
05:00+14с89730 0.0 1025615
08:00+14с67690 0.0 1025639
11:00+14с55650 0.0 1026690
14:00+15с44630 0.0 1024749
17:00+15ссв44620 0.0 1023769
20:00+15с55660 0.0 1023707
27 февраля, сб
сб2723:00+15ссз77761 0.0 1023749
02:00+15ссз89787 0.0 1021810
05:00+14ссз777484 0.0 1021927
08:00+14ссз667486 0.0 1020910
11:00+15ссз567168 0.0 1021794
14:00+15сз557034 0.0 1019725
17:00+15сз56700 0.0 1018734
20:00+15сз67730 0.0 1019667
28 февраля, вс
вс2823:00+15сз67720 0.0 1018603
02:00+16сз89710 0.0 1018822
05:00+16ссз89720 0.0 1017816
08:00+16с710700 0.0 1018903
11:00+16с1113670 0.0 1019850
14:00+16с1214630 0.0 10201360
17:00+15с1416620 0.0 10201409
20:00+14с1416600 0.0 10221555
1 марта, пн
пн123:00+13с1619570 0.0 10241695
02:00+12с1518590 0.0 10241598
05:00+11с1417610 0.0 10231449
08:00+11с1517650 0.0 10241309
11:00+12с1416650 0.0 10251300
14:00+12с1417620 0.0 10251350
17:00+12с1416620 0.0 10251512
20:00+13с1214610 0.0 10261628